Lawrenceville, GA

3:12 AM EST on December 06, 2019 (GMT -0500)
Gwinnett County-Briscoe

Weather History for KLZU - October, 2019

Change the Weather History Date:

Tuesday, October 22, 2019

  Actual Average (WUND) Record (WUND)
Temperature  
Mean Temperature 62 °F -  
Max Temperature 73 °F - - (-1)
Min Temperature 53 °F - - (-1)
Degree Days  
Heating Degree Days 3    
Growing Degree Days 12 (Base 50)    
Moisture  
Dew Point 55 °F    
Average Humidity 78    
Maximum Humidity 100    
Minimum Humidity 30    
Precipitation  
Precipitation 0.10 in - - ()
Sea Level Pressure  
Sea Level Pressure 29.96 in    
Wind  
Wind Speed 5 mph ()    
Max Wind Speed 14 mph    
Max Gust Speed 23 mph    
Visibility 8.8 miles    
Events Rain    
Averages and records for this station are not official NWS values.
T = Trace of Precipitation, MM = Missing Value Source: Averaged Metar Reports

Daily Weather History Graph

Daily Weather History Graph

Search for Another Location

Airport or City:

Astronomy

Oct. 22, 2019 Rise Set
Actual Time 7:46 AM EDT 6:53 PM EDT
Civil Twilight 7:21 AM EDT 7:19 PM EDT
Nautical Twilight 6:51 AM EDT 7:48 PM EDT
Astronomical Twilight 6:22 AM EDT 8:17 PM EDT
Moon 1:17 AM EDT (10/22) 3:41 PM EDT (10/22)
Length of Visible Light 11h 58m
Length of Day
11h 07m
Last Quarter, 37% of the Moon is Illuminated
Oct 22
Last Quarter
Oct 27
New
Nov 4
First Quarter
Nov 12
Full
Nov 19
Last Quarter

Hourly Weather History & Observations

Time (EDT) Temp. Dew Point Humidity Pressure Visibility Wind Dir Wind Speed Gust Speed Precip Events Conditions
12:56 AM 66.0 °F 64.9 °F 96% 29.96 in 10.0 mi ESE 3.5 mph - N/A   Mostly Cloudy
1:56 AM 66.0 °F 64.9 °F 96% 29.95 in 10.0 mi Calm Calm - N/A   Partly Cloudy
2:40 AM 66.2 °F 64.4 °F 94% 29.92 in 10.0 mi Calm Calm - N/A   Overcast
2:56 AM 66.0 °F 64.9 °F 96% 29.91 in 10.0 mi East 4.6 mph - N/A   Overcast
3:19 AM 64.4 °F 64.4 °F 100% 29.89 in 10.0 mi East 4.6 mph - N/A   Mostly Cloudy
3:56 AM 66.0 °F 64.9 °F 96% 29.91 in 10.0 mi Calm Calm - N/A   Overcast
4:56 AM 66.0 °F 66.0 °F 100% 29.89 in 10.0 mi Variable 3.5 mph - N/A   Mostly Cloudy
5:56 AM 66.9 °F 66.0 °F 97% 29.89 in 10.0 mi South 5.8 mph - N/A   Overcast
6:20 AM 66.2 °F 66.2 °F 100% 29.88 in 10.0 mi South 8.1 mph - N/A   Overcast
6:56 AM 66.9 °F 66.0 °F 97% 29.88 in 10.0 mi SSW 5.8 mph - N/A   Overcast
7:15 AM 66.2 °F 66.2 °F 100% 29.88 in 10.0 mi SSW 6.9 mph - N/A   Overcast
7:41 AM 64.4 °F 64.4 °F 100% 29.90 in 4.0 mi West 10.4 mph 21.9 mph 0.02 in Rain Light Rain
7:56 AM 61.0 °F 60.1 °F 97% 29.93 in 4.0 mi WNW 11.5 mph 23.0 mph 0.02 in Rain Light Rain
8:48 AM 57.2 °F 57.2 °F 100% 29.95 in 2.0 mi West 8.1 mph 16.1 mph 0.07 in Rain Light Rain
8:54 AM 57.2 °F 57.2 °F 100% 29.95 in 3.0 mi West 9.2 mph 16.1 mph 0.07 in Rain Light Rain
8:56 AM 57.0 °F 57.0 °F 100% 29.97 in 2.0 mi West 9.2 mph 16.1 mph 0.07 in Rain Light Rain
9:56 AM 59.0 °F 57.9 °F 96% 29.98 in 10.0 mi West 9.2 mph - 0.01 in   Overcast
10:56 AM 62.1 °F 59.0 °F 90% 29.99 in 10.0 mi West 9.2 mph - 0.00 in   Scattered Clouds
11:56 AM 64.9 °F 55.0 °F 70% 29.98 in 10.0 mi WNW 8.1 mph - N/A   Partly Cloudy
12:56 PM 68.0 °F 52.0 °F 56% 29.99 in 10.0 mi WNW 10.4 mph 16.1 mph N/A   Clear
1:56 PM 70.0 °F 46.0 °F 42% 29.96 in 10.0 mi West 13.8 mph 19.6 mph N/A   Clear
2:56 PM 71.1 °F 44.1 °F 38% 29.95 in 10.0 mi West 13.8 mph 18.4 mph N/A   Clear
3:56 PM 71.1 °F 37.9 °F 30% 29.96 in 10.0 mi Variable 6.9 mph 17.3 mph N/A   Clear
4:56 PM 70.0 °F 39.0 °F 32% 29.98 in 10.0 mi West 9.2 mph 18.4 mph N/A   Clear
5:56 PM 68.0 °F 36.0 °F 31% 29.97 in 10.0 mi WNW 9.2 mph 16.1 mph N/A   Clear
6:56 PM 63.0 °F 37.9 °F 40% 30.00 in 10.0 mi West 5.8 mph - N/A   Clear
7:56 PM 60.1 °F 37.9 °F 44% 30.03 in 10.0 mi West 4.6 mph - N/A   Clear
8:56 PM 53.1 °F 43.0 °F 69% 30.06 in 10.0 mi Calm Calm - N/A   Clear
10:56 PM 54.0 °F 41.0 °F 62% 30.09 in 10.0 mi West 4.6 mph - N/A   Clear
11:56 PM 55.0 °F 39.9 °F 57% 30.11 in 10.0 mi West 4.6 mph - N/A   Clear